星链-5175 (STARLINK-5175 )

导读

STARLINK-5175是美国太空探索技术公司Starlink卫星互联网项目的成员,于2022年10月20日8时发射升空,属于SpaceX部署的第二代星链卫星。该卫星旨在为全球用户提供低延迟、高速率的宽带互联网服务,依托近地轨道星座组网,填补全球网络覆盖盲区,服务偏远地区与移动网络场景。

基本信息
目录编号:
54079
目录名称:
STARLINK-5175
国际标识:
2022-136AE
轨道中心:
EARTH
卫星名称:
星链-5175
卫星全名:
星链-5175 (STARLINK-5175 )
卫星状态:
在轨 (已飞行1423 天)
发射日期:
2022-10-20 UTC
国别 :
美国 (US)
星等 :
--
该卫星已列入 空间交会检测服务 Space Conjunction Data Service (SCDS) ,当前飞行风险评估等级: 无高风险
轨道信息
数据来源 国际轨道数据
星历时间: 2026-09-12T12:00:02+0800
8小时前
查看轨道信息
半长轴: 6879.971km
偏心率: 0.00017
轨道倾角: 53.161°
近地点辐角 69.071°
升交点赤经 216.064°
平近点角 172.601°
近地点: 500.664km
远地点: 503.004km
周期: 94.654分钟
每日圈数: 15.213283
详细信息
固有亮度:
5
最大亮度:
2.5
卫星平台:
Starlink v1.5
覆盖范围:
全球
运营商:
太空探索技术公司
运营商所在国:
美国
制造商(研发单位):
太空探索技术公司
制造商所在国:
美国
使用方式:
暂无
卫星简介
星链(Starlink)计划是由太空探索技术公司(SpaceX)提出的一个巨型低轨卫星互联网星座项目,计划在2019年至2024年间在太空搭建由约1.2万颗卫星组成的“星链”网络,其中1584颗将部署在地球上空550千米处的近地轨道,并从2020年开始工作。该卫星仍在工作。
2D轨道图
3D轨道图
轨道高度分析图
轨道倾角分析图
轨道综合分析图
查看轨道综合分析图
交会数据列表
事件ID 空间交会对象 最接近时刻(TCA) 交会距离 交会风险概率(CRP) 交会风险指数(CRI) 操作
CDM_260914-042905-407906-453721
2026-09-14T
04:29:58+0000
2.535 km
极远距离
1.701964E-6 低风险 0.4
与全量物体交会距离演化趋势
与全量物体交会风险概率演化趋势